Home > Weather > Wichita Falls > Past weeks

Flag for USA Past Weather in Wichita Falls, Texas, USA — Yesterday and Last 2 Weeks

Now
75 °F

Light rain. Fog.


Feels Like: 73 °F
Forecast: 72 / 87 °F
Wind: 14 mph from Southeast

Location: Wichita Falls - Sheppard Air Force Base

Current Time: May 26, 2016 at 7:45:10 AM

Latest Report: May 26, 2016 at 6:59 AM


Visibility: 4 mi

Pressure: 29.85 "Hg

Humidity: 94%

Dew Point: 73 °F

Location of Wichita FallsLocation

Past Weather in Wichita Falls — Graph

°F

Wichita Falls Temperature Yesterday

Maximum temperature yesterday: 90 °F (at 1:52 PM)
Minimum temperature yesterday: 74 °F (at 12:52 AM)
Average temperature yesterday: 81 °F

High & Low Weather Summary for the Past Weeks

 TemperatureHumidityPressure
High90 °F (May 25, 1:52 PM)100% (May 23, 2:55 AM)30.27 "Hg (May 23, 2:55 AM)
Low53 °F (May 14, 10:52 PM)32% (May 12, 5:52 PM)29.75 "Hg (May 23, 7:52 PM)
Average69 °F75%29.98 "Hg
* Reported May 11 5:52 AM — May 26 5:52 AM, Wichita Falls, Weather by CustomWeather, © 2016

Note: Actual official high and low records may vary slightly from our data, if they occured in-between our weather recording intervals... More about our weather records

Advertising

Wichita Falls Weather History for the Previous 24 Hours

Scroll right to see more
 ConditionsComfort  
Time TempWeatherWind HumidityBarometerVisibility
5:52 AM
Thu, May 26
76 °FFog.12 mph91%29.80 "Hg5 mi
4:52 AM75 °FFog.10 mph94%29.80 "Hg4 mi
3:52 AM75 °FFog.12 mph94%29.80 "Hg4 mi
2:52 AM76 °FFog.13 mph91%29.80 "Hg4 mi
1:52 AM76 °FFog.13 mph91%29.80 "Hg5 mi
12:52 AM77 °FFog.16 mph88%29.82 "Hg5 mi
11:52 PM
Wed, May 25
77 °FFog.16 mph88%29.83 "Hg6 mi
10:52 PM78 °FClear.16 mph84%29.82 "Hg8 mi
9:52 PM80 °FClear.14 mph79%29.82 "Hg9 mi
8:52 PM82 °FSunny.16 mph77%29.80 "Hg8 mi
7:52 PM84 °FSunny.16 mph72%29.80 "Hg9 mi
6:52 PM87 °FSunny.15 mph67%29.79 "Hg10 mi
5:52 PM88 °FSunny.16 mph63%29.79 "Hg10 mi
4:52 PM90 °FSunny.17 mph59%29.79 "Hg10 mi
3:52 PM90 °FPassing clouds.17 mph59%29.81 "Hg10 mi
2:52 PM90 °FScattered clouds.20 mph57%29.83 "Hg10 mi
1:52 PM90 °FScattered clouds.21 mph57%29.84 "Hg10 mi
12:52 PM86 °FBroken clouds.20 mph65%29.86 "Hg9 mi
11:52 AM85 °FBroken clouds.14 mph70%29.87 "Hg8 mi
10:52 AM82 °FMostly cloudy.16 mph74%29.87 "Hg8 mi
9:52 AM78 °FMostly cloudy.12 mph82%29.89 "Hg7 mi
8:52 AM78 °FMore clouds than sun.18 mph79%29.87 "Hg7 mi
7:52 AM75 °FOvercast.16 mph88%29.86 "Hg7 mi
Weather by CustomWeather, © 2016

See weather overviewHow to use our weather pages